DW5920 Sevilla ES current weather conditions

sailwx.info

Wind from 184

Air temperature 32.8° C
Dewpoint 11.3° C

Last reported at 2017-Sep-24 17:02 UTC.
Time now 2017-Sep-24 17:47 UTC

Location: N 37°23' W 005°55'.
View on Google Maps.

See reports from other nearby stations

  
Tides and Currents Weather Stations Pressure Air Temp Water Temp Dewpoint Dewpoint Depression Visibility Wind Speed Wind Dir Waves Ship Positions
date/time (UTC)wind fromknots sea level pressurealtimeterstation pressurevisibilityair tempwater tempwave heightnotes
2017-Sep-24 17:02 184 32.8
2017-Sep-24 16:47 255 0 gusting 5 32.8
2017-Sep-24 16:32 225 0 gusting 4 32.2
2017-Sep-24 16:17 285 0 gusting 3 32.2
2017-Sep-24 16:02 026 0 gusting 4 32.8
2017-Sep-24 15:47 283 1 gusting 4 32.8
2017-Sep-24 15:32 300 1 gusting 5 32.8
2017-Sep-24 15:17 260 1 gusting 6 32.2
2017-Sep-24 15:02 150 1 gusting 5 31.7
2017-Sep-24 14:47 211 1 gusting 4 31.7
2017-Sep-24 14:32 286 0 gusting 6 32.2
2017-Sep-24 14:17 034 2 gusting 7 31.7
2017-Sep-24 14:02 291 1 gusting 5 31.7
2017-Sep-24 13:47 243 1 gusting 6 31.1
2017-Sep-24 13:32 032 0 gusting 3 31.1
2017-Sep-24 13:18 266 0 gusting 3 31.1
2017-Sep-24 13:02 005 0 gusting 3 31.1
2017-Sep-24 12:47 096 1 gusting 6 30.0
2017-Sep-24 12:32 106 0 gusting 4 30.0
2017-Sep-24 12:17 137 0 gusting 3 29.4
2017-Sep-24 12:02 179 1 gusting 6 28.9
2017-Sep-24 11:47 135 1 gusting 5 28.3
2017-Sep-24 11:32 142 1 gusting 4 28.3
2017-Sep-24 11:17 022 0 gusting 3 28.3
2017-Sep-24 11:02 323 1 gusting 5 27.8
2017-Sep-24 10:47 204 27.2
2017-Sep-24 10:32 092 0 gusting 4 26.7
2017-Sep-24 10:17 297 0 gusting 4 26.1
2017-Sep-24 10:02 023 0 gusting 2 25.6
2017-Sep-24 09:47 029 0 gusting 4 25.0
2017-Sep-24 09:32 319 0 gusting 3 25.0
2017-Sep-24 09:17 333 0 gusting 4 23.9
2017-Sep-24 09:02 077 0 gusting 2 23.3
2017-Sep-24 08:47 060 0 gusting 3 22.8
2017-Sep-24 08:32 072 0 gusting 2 22.2
2017-Sep-24 08:17 011 21.7
2017-Sep-24 08:02 081 0 gusting 2 21.1
2017-Sep-24 07:47 006 20.6
2017-Sep-24 07:32 027 20.6
2017-Sep-24 07:17 064 0 gusting 3 20.0
2017-Sep-24 07:02 053 20.0
2017-Sep-24 06:47 027 19.4
2017-Sep-24 06:32 032 18.9
2017-Sep-24 06:17 004 18.9
2017-Sep-24 06:02 019 18.9
2017-Sep-24 05:47 009 18.9
2017-Sep-24 05:32 006 0 gusting 2 18.9
2017-Sep-24 05:17 19.4
2017-Sep-24 05:02 015 18.9
2017-Sep-24 04:47 122 18.9
2017-Sep-24 04:32 124 18.9
2017-Sep-24 04:17 124 19.4
2017-Sep-24 04:02 124 19.4
2017-Sep-24 03:47 153 19.4
2017-Sep-24 03:32 159 19.4
2017-Sep-24 03:17 135 20.0
2017-Sep-24 03:02 181 20.0
2017-Sep-24 02:47 226 0 gusting 3 20.0
2017-Sep-24 02:32 239 0 gusting 1 20.0
2017-Sep-24 02:17 243 0 gusting 2 20.6
2017-Sep-24 02:02 242 0 gusting 3 20.6
2017-Sep-24 01:47 197 20.6
2017-Sep-24 01:32 240 0 gusting 4 20.6
2017-Sep-24 01:17 153 0 gusting 4 21.1
2017-Sep-24 01:02 233 1 gusting 5 21.1
2017-Sep-24 00:47 146 0 gusting 3 21.1
2017-Sep-24 00:32 150 1 gusting 5 21.7
2017-Sep-24 00:17 171 0 gusting 2 21.7
2017-Sep-24 00:02 167 0 gusting 1 22.2
2017-Sep-23 23:47 156 0 gusting 2 22.2
2017-Sep-23 23:32 157 0 gusting 2 22.2
2017-Sep-23 23:17 164 22.8
2017-Sep-23 23:02 149 0 gusting 2 23.3
2017-Sep-23 22:47 215 0 gusting 4 23.3
2017-Sep-23 22:32 126 0 gusting 2 23.9
2017-Sep-23 22:17 322 23.9
2017-Sep-23 22:02 210 0 gusting 2 23.3
2017-Sep-23 21:47 159 0 gusting 3 23.3
2017-Sep-23 21:32 169 1 gusting 3 23.9
2017-Sep-23 21:17 193 1 gusting 4 24.4
2017-Sep-23 21:02 201 0 gusting 4 25.0
2017-Sep-23 20:47 169 0 gusting 3 25.6
2017-Sep-23 20:32 240 25.6
2017-Sep-23 20:17 207 1 gusting 5 25.6
2017-Sep-23 20:02 214 1 gusting 4 25.6
2017-Sep-23 19:47 225 2 gusting 6 26.1
2017-Sep-23 19:32 240 2 gusting 6 26.7
2017-Sep-23 19:17 160 1 gusting 6 27.2
2017-Sep-23 19:02 153 27.8
2017-Sep-23 18:47 169 28.3
2017-Sep-23 18:32 148 28.3
2017-Sep-23 18:17 150 28.9
2017-Sep-23 18:02 183 0 gusting 3 29.4
2017-Sep-23 17:47 211 0 gusting 5 29.4
2017-Sep-23 17:32 245 0 gusting 3 30.0
2017-Sep-23 17:17 246 0 gusting 4 30.6
2017-Sep-23 17:02 271 0 gusting 5 31.7
2017-Sep-23 16:47 174 1 gusting 3 31.7
2017-Sep-23 16:32 270 1 gusting 5 31.1
2017-Sep-23 16:17 226 0 gusting 4 31.7
2017-Sep-23 16:02 094 1 gusting 6 31.7
2017-Sep-23 15:47 231 0 gusting 5 31.7
2017-Sep-23 15:32 285 0 gusting 6 31.7
2017-Sep-23 15:17 134 1 gusting 5 31.7
2017-Sep-23 15:02 128 0 gusting 5 31.7
2017-Sep-23 14:47 021 0 gusting 6 31.1
2017-Sep-23 14:32 147 1 gusting 5 31.1
2017-Sep-23 14:17 288 0 gusting 5 31.1
2017-Sep-23 14:02 294 1 gusting 6 31.1
2017-Sep-23 13:47 092 0 gusting 4 31.7
2017-Sep-23 13:32 191 0 gusting 4 31.1
2017-Sep-23 13:17 321 1 gusting 7 31.1
2017-Sep-23 13:02 226 0 gusting 5 31.1
2017-Sep-23 12:47 056 0 gusting 5 30.6
2017-Sep-23 12:32 250 0 gusting 4 30.0
2017-Sep-23 12:17 067 0 gusting 5 30.0
2017-Sep-23 12:02 070 1 gusting 5 29.4
2017-Sep-23 11:47 278 0 gusting 3 29.4
2017-Sep-23 11:32 225 1 gusting 6 28.9
2017-Sep-23 11:17 064 0 gusting 5 28.3
2017-Sep-23 11:02 011 2 gusting 6 27.8
2017-Sep-23 10:47 018 2 gusting 6 27.8
2017-Sep-23 10:32 040 0 gusting 4 27.8
2017-Sep-23 10:17 344 1 gusting 5 27.2
2017-Sep-23 10:02 089 1 gusting 5 26.7
2017-Sep-23 09:47 082 1 gusting 5 26.1
2017-Sep-23 09:32 345 0 gusting 5 25.6
2017-Sep-23 09:17 051 1 gusting 6 24.4
2017-Sep-23 09:02 049 1 gusting 6 23.9
2017-Sep-23 08:47 358 1 gusting 6 23.3
2017-Sep-23 08:32 047 1 gusting 6 22.8
2017-Sep-23 08:17 032 2 gusting 7 21.7
2017-Sep-23 08:02 034 4 gusting 9 21.1
2017-Sep-23 07:47 016 2 gusting 7 20.6
2017-Sep-23 07:32 037 3 gusting 6 20.0
2017-Sep-23 07:17 034 3 gusting 6 19.4
2017-Sep-23 07:02 034 2 gusting 6 19.4
2017-Sep-23 06:47 006 1 gusting 4 18.9
2017-Sep-23 06:32 029 0 gusting 3 18.3
2017-Sep-23 06:17 041 0 gusting 4 18.9
2017-Sep-23 06:02 040 1 gusting 6 18.9
2017-Sep-23 05:47 015 1 gusting 5 18.9
2017-Sep-23 05:32 025 0 gusting 5 18.3
2017-Sep-23 05:17 018 0 gusting 3 18.3
2017-Sep-23 05:02 053 0 gusting 4 18.9
2017-Sep-23 04:47 056 0 gusting 2 18.9
2017-Sep-23 04:32 018 0 gusting 2 18.3
2017-Sep-23 04:17 018 18.3
2017-Sep-23 04:02 346 0 gusting 3 18.9
2017-Sep-23 03:47 009 0 gusting 3 18.9
2017-Sep-23 03:32 053 1 gusting 4 18.9
2017-Sep-23 03:17 348 0 gusting 3 19.4
2017-Sep-23 03:02 323 19.4
2017-Sep-23 02:47 143 19.4
2017-Sep-23 02:32 142 19.4
2017-Sep-23 02:17 143 19.4
2017-Sep-23 02:02 143 19.4
2017-Sep-23 01:47 141 19.4
2017-Sep-23 01:32 136 20.0
2017-Sep-23 01:17 139 20.0
2017-Sep-23 01:02 154 20.0
2017-Sep-23 00:47 150 20.6
2017-Sep-23 00:32 151 20.6
2017-Sep-23 00:17 183 20.6
2017-Sep-23 00:02 210 20.6
2017-Sep-22 23:47 229 20.6
2017-Sep-22 23:32 212 0 gusting 1 20.6
2017-Sep-22 23:17 194 0 gusting 2 20.6
2017-Sep-22 23:02 132 0 gusting 3 21.1
2017-Sep-22 22:47 274 1 gusting 5 21.1
2017-Sep-22 22:32 212 0 gusting 3 21.1
2017-Sep-22 22:17 204 0 gusting 2 21.7
2017-Sep-22 22:02 243 0 gusting 3 21.7
2017-Sep-22 21:47 184 0 gusting 3 22.2
2017-Sep-22 21:32 252 1 gusting 3 22.2
2017-Sep-22 21:17 205 0 gusting 4 22.8
2017-Sep-22 21:02 221 0 gusting 3 23.3
2017-Sep-22 20:47 233 1 gusting 5 23.3
2017-Sep-22 20:32 197 1 gusting 5 23.9
2017-Sep-22 20:17 202 1 gusting 4 24.4
2017-Sep-22 20:02 187 2 gusting 6 25.0
2017-Sep-22 19:47 226 1 gusting 4 25.0
2017-Sep-22 19:32 224 0 gusting 3 25.6
2017-Sep-22 19:17 257 0 gusting 3 26.1
2017-Sep-22 19:02 188 0 gusting 3 26.7
2017-Sep-22 18:47 211 0 gusting 5 27.2
2017-Sep-22 18:32 214 2 gusting 6 27.8
2017-Sep-22 18:17 222 2 gusting 6 28.3
2017-Sep-22 18:02 208 0 gusting 3 29.4
2017-Sep-22 17:47 165 1 gusting 4 29.4
2017-Sep-22 17:32 235 0 gusting 6 30.0
2017-Sep-22 17:17 228 1 gusting 5 30.6
2017-Sep-22 17:02 179 1 gusting 5 31.1